User: anonymous   Login
Location: Unspecified
(0.0000°N, 0.0000°E)
Time: 03:23:08
(UTC+00:00)
Language:

ETS 8 - Orbit

View from above orbital plane
View from above orbital plane
View from above satellite
View from above satellite

Ground track
Ground track

The orbit data is extracted from the following two-line orbital elements,

1 29656U 06059A   15125.56512619 -.00000240  00000-0  00000+0 0  9993
2 29656 004.1493 064.1774 0006660 341.9127 166.1804 01.00271671 30728
Epoch (UTC): 05 May 2015 13:33:46
Eccentricity: 0.0006660
inclination: 4.1493°
perigee height: 35758 km
apogee height: 35814 km
right ascension of ascending node: 64.1774°
argument of perigee: 341.9127°
revolutions per day: 1.00271671
mean anomaly at epoch: 166.1804°
orbit number at epoch: 3072

The dashed part of the orbit path shows where the satellite is in the earth's shadow,  

DLR